Location: Bad Dürkheim
(49.4618°N, 8.1724°E)
Time: 16:28:02
(UTC+00:00)

ASTEX 1 - Pass Details

Date: 14 June 2025
Orbit: 712 x 736 km, 92.7° (Epoch: 19 July)

Event Time Altitude Azimuth Distance (km) Brightness Sun altitude
Rises 21:52:21 0° 9° (N) 3,180 7.8 -14.2°
Reaches altitude 10° 21:54:43 10° 14° (NNE) 2,251 6.8 -14.3°
Maximum altitude 21:59:35 53° 91° (E) 904 3.7 -14.6°
Enters shadow 22:02:26 24° 159° (SSE) 1,505 4.4 -14.8°
